Hourly Data Report for June 30, 2021

MANIWAKI AIRPORT
QUEBEC
Current Station Operator: ECCC - MSC

46°16'29.000" N
75°59'31.000" W
199.70 m
7034482
71721
WMJ

Download Data

Hourly Data (June 2021)
Hourly Data Report for June 30, 2021
TIME
LST
Temp Definition
°C
Dew Point Definition
°C
Rel Hum Definition
%
Precip. Amount Definition
mm

Wind Dir Definition
10's deg

Wind Spd Definition
km/h
Visibility Definition
km
Stn Press Definition
kPa
Hmdx Definition


Wind Chill Definition


Weather Definition


00:00 19.4 19.1 98 5.0 22 2   99.14     LegendNANA
01:00 19.2 19.0 99 18.0 33 8   99.06     LegendNANA
02:00 19.1 19.0 99 19.0 30 5   98.98     LegendNANA
03:00 19.0 18.9 99 7.2 20 4   98.93     LegendNANA
04:00 19.2 19.0 99 2.9 25 2   98.94     LegendNANA
05:00 19.3 19.1 99 0.1 17 4   98.92     LegendNANA
06:00 20.0 19.7 98 0.0 18 4   98.88 27   LegendNANA
07:00 20.7 19.7 93 0.0 23 8   98.86 28   LegendNANA
08:00 21.5 19.6 89 0.0 24 14   98.82 29   LegendNANA
09:00 22.3 19.2 83 0.0 25 16   98.79 29   LegendNANA
10:00 23.9 19.0 74 0.0 24 21   98.75 31   LegendNANA
11:00 25.1 19.8 72 0.0 24 16   98.69 33   LegendNANA
12:00 23.7 19.3 77 0.0 23 20   98.62 31   LegendNANA
13:00 21.5 18.1 81 1.1 27 18   98.65 28   LegendNANA
14:00 23.2 18.6 75 0.0 29 13   98.66 30   LegendNANA
15:00 21.9 16.7 72 0.0 32 23   98.69 27   LegendNANA
16:00 22.2 15.5 65 0.0 34 19   98.74 26   LegendNANA
17:00 21.1 15.7 71 0.0 36 17   98.78 26   LegendNANA
18:00 20.3 14.4 69 0.0 34 18   98.86     LegendNANA
19:00 19.3 14.6 74 0.0 36 13   98.94     LegendNANA
20:00 17.1 14.0 82 0.0 1 6   98.93     LegendNANA
21:00 14.9 13.9 94 0.0 36 4   98.93     LegendNANA
22:00 13.9 13.6 98 0.0 24 1   98.91     LegendNANA
23:00 12.8 12.5 98 0.0   0   98.91     LegendNANA

Notes on Data Quality.

Legend

  • E = Estimated
  • M = Missing
  • NA = Not Available*
  • [empty] = Indicates an unobserved value
Date modified: